Location: Bambrugge
(50.9212°N, 3.9299°E)
Time: 04:26:33
(UTC+00:00)

Timation 1 Rocket - Pass Details

Date: 07 August 2024
Orbit: 895 x 909 km, 70.0° (Epoch: 12 September)

Event Time Altitude Azimuth Distance (km) Brightness Sun altitude
Rises 20:23:31 0° 319° (NW) 3,546 9.6 -9.3°
Reaches altitude 10° 20:26:40 10° 304° (WNW) 2,602 8.4 -9.6°
Maximum altitude 20:30:51 20° 259° (W) 1,975 6.6 -10.1°
Drops below altitude 10° 20:35:02 10° 214° (SW) 2,591 6.7 -10.6°
Sets 20:38:10 0° 199° (SSW) 3,528 7.2 -11.0°
